Weather Roundup
Issued by NWS Springfield, MO

Home | Current Version | Previous Version | Text Only | Print | Product List | Glossary On
Versions: 1 2 3 4 5 6 7 8 9 10 11 12 13 14 15 16 17 18 19 20 21 22 23 24 25 26 27 28 29 30 31 32 33 34 35 36 37 38 39 40 41 42 43 44 45 46 47 48 49 50
000
NZUS99 KSGF 300907
HRRSGF

HOURLY WEATHER
NATIONAL WEATHER SERVICE SPRINGFIELD MO
400 AM CDT MON MAR 30 2015

......SGF CWA......

CITY           SKY/WX    TMP DP  RH WIND       PRES   REMARKS
SPRINGFIELD    FOG       33  32  96 CALM      30.16F VSB 3/4
JOPLIN         CLEAR     39  37  92 CALM      30.20R
WEST PLAINS    CLEAR     46  38  73 N5        30.15S
ROLLA          CLEAR     44  36  73 W6        30.13R
OSAGE BEACH    CLEAR     36  34  93 CALM      30.15F
BRANSON        PTCLDY    45  41  87 CALM      30.17S

......SURROUNDING SGF CWA......

CITY           SKY/WX    TMP DP  RH WIND       PRES   REMARKS
CHANUTE        CLEAR     36  34  92 CALM      30.20S
PARSONS        CLEAR     35  34  96 CALM      30.21S
COFFEYVILLE    CLEAR     41  38  89 CALM      30.20S
EMPORIA        CLEAR     33  30  88 SE5       30.16F WCI  29
GROVE OK       FAIR      41  41 100 CALM      30.21S
ROGERS AR      CLEAR     44  41  89 NE3       30.19R
SILOAM SPRINGS CLEAR     46  37  71 N5        30.19S
HARRISON AR    CLEAR     47  42  83 NW6       30.16S
NEAR YELLVILLE CLEAR     50  39  66 N5        30.15S

......KANSAS AND MISSOURI......

CITY           SKY/WX    TMP DP  RH WIND       PRES   REMARKS
KANSAS CTY INT CLEAR     41  31  67 SW7       30.17S
DOWNTOWN KC    CLEAR     41  35  79 CALM      30.17F
COLUMBIA       CLEAR     44  36  73 NW6       30.14S
SEDALIA        PTCLDY    45  34  65 W5        30.16S
ST JOSEPH      NOT AVBL
ST LOUIS       CLEAR     43  36  76 W7        30.13R
SPIRIT OF STL  CLEAR     34  32  92 SW3       30.13R
KIRKSVILLE     PTCLDY    31  28  89 W5        30.14S WCI  26
WICHITA        CLEAR     39  31  72 CALM      30.19F
TOPEKA         CLEAR     36  31  82 CALM      30.18F
OLATHE         CLEAR     41  33  73 CALM      30.17S

......TENNESSEE......

CITY           SKY/WX    TMP DP  RH WIND       PRES   REMARKS
MEMPHIS        CLOUDY    58  52  80 N5        30.10R
NASHVILLE      CLOUDY    50  47  89 CALM      30.06S

......ARKANSAS.......

CITY           SKY/WX    TMP DP  RH WIND       PRES   REMARKS
FAYETTEVILLE   FAIR      39  39 100 CALM      30.19R
FT SMITH       CLEAR     47  44  90 CALM      30.16R
LITTLE ROCK    PTCLDY    60  46  59 CALM      30.14R

......OKLAHOMA.......

CITY           SKY/WX    TMP DP  RH WIND       PRES   REMARKS
TULSA          CLEAR     50  44  80 NE7       30.17F
PONCA CITY     CLEAR     47  36  65 E3        30.20R
MCALESTER      CLEAR     50  43  77 NE5       30.15S
OKLAHOMA CITY  CLEAR     50  39  66 N8        30.15F

......IOWA............

CITY           SKY/WX    TMP DP  RH WIND       PRES   REMARKS
DES MOINES     PTCLDY    37  24  59 SW6       30.10S WCI  32
QUAD CITIES    CLEAR     37  28  70 W7        30.04F WCI  32

......ILLINOIS........

CITY           SKY/WX    TMP DP  RH WIND       PRES   REMARKS
QUINCY         CLEAR     42  30  62 W6        30.11S
CHICAGO        FAIR      37  29  72 W10       29.96R WCI  30



USA.gov is the U.S. government's official web portal to all federal, state and local government web resources and services.